| time (UTC) | temp F | wind direction | speed knots | gust knots | rain 1hr in | rain 24hr in | rain mn in | humidity % | barometer mb |
| 20260507010236 | 53 | 156 | 8.7 | 13.0 | 0.00 | 3.01 | 0.00 | 97 | 1013.5 |
| 20260507004735 | 53 | 156 | 7.0 | 13.0 | 0.00 | 3.12 | 0.00 | 98 | 1013.6 |
| 20260507003236 | 53 | 156 | 7.8 | 13.0 | 0.00 | 3.17 | 0.00 | 97 | 1013.4 |
| 20260507001736 | 53 | 156 | 11.3 | 15.6 | 0.00 | 3.20 | 0.00 | 97 | 1013.6 |
| 20260507000235 | 53 | 156 | 10.4 | 15.6 | 0.00 | 3.30 | 0.00 | 97 | 1013.4 |
| 20260506234735 | 54 | 156 | 7.8 | 13.0 | 0.00 | 3.41 | 0.00 | 95 | 1013.6 |
| 20260506233236 | 55 | 156 | 5.2 | 11.3 | 0.00 | 3.53 | 0.00 | 94 | 1013.7 |
| 20260506231736 | 55 | 156 | 0.9 | 2.6 | 0.00 | 3.76 | 0.00 | 94 | 1013.5 |
| 20260506230236 | 55 | 156 | 1.7 | 5.2 | 0.00 | 3.94 | 0.00 | 94 | 1013.3 |
| 20260506224735 | 56 | 156 | 5.2 | 11.3 | 0.00 | 4.00 | 0.00 | 94 | 1013.7 |
| 20260506223235 | 57 | 156 | 2.6 | 5.2 | 0.00 | 4.00 | 0.00 | 93 | 1013.4 |
| 20260506221736 | 57 | 156 | 0.9 | 2.6 | 0.00 | 4.00 | 0.00 | 92 | 1013.5 |
| 20260506220236 | 57 | 156 | 4.3 | 7.8 | 0.00 | 4.00 | 0.00 | 91 | 1013.5 |
| 20260506214736 | 57 | 156 | 4.3 | 7.8 | 0.00 | 4.00 | 4.00 | 89 | 1013.4 |
| 20260506213234 | 58 | 156 | 5.2 | 7.8 | 0.00 | 4.00 | 4.00 | 88 | 1013.3 |
| 20260506211735 | 58 | 156 | 0.0 | 2.6 | 0.00 | 4.00 | 4.00 | 88 | 1013.3 |
| 20260506210235 | 58 | 155 | 1.7 | 5.2 | 0.00 | 4.00 | 4.00 | 88 | 1013.2 |
| 20260506204736 | 58 | 156 | 0.9 | 5.2 | 0.00 | 4.18 | 4.00 | 87 | 1013.1 |
| 20260506203235 | 59 | 155 | 1.7 | 5.2 | 0.00 | 4.20 | 4.00 | 86 | 1012.9 |
| 20260506201735 | 59 | 155 | 2.6 | 5.2 | 0.00 | 4.20 | 4.00 | 85 | 1012.7 |
| 20260506200234 | 59 | 156 | 4.3 | 5.2 | 0.00 | 4.20 | 4.00 | 84 | 1012.8 |
| 20260506194736 | 60 | 156 | 2.6 | 5.2 | 0.00 | 4.22 | 4.00 | 83 | 1012.6 |
| 20260506193234 | 60 | 158 | 1.7 | 5.2 | 0.00 | 4.54 | 4.00 | 81 | 1012.6 |
| 20260506191733 | 60 | 228 | 1.7 | 5.2 | 0.00 | 4.71 | 4.00 | 83 | 1012.3 |
| 20260506190234 | 60 | 203 | 0.0 | 2.6 | 0.00 | 4.78 | 4.00 | 83 | 1012.0 |
| 20260506184734 | 60 | 235 | 1.7 | 5.2 | 0.00 | 4.78 | 4.00 | 85 | 1011.7 |
| 20260506183235 | 60 | 246 | 5.2 | 11.3 | 0.00 | 4.78 | 4.00 | 86 | 1011.6 |
| 20260506181734 | 60 | 235 | 2.6 | 5.2 | 0.00 | 4.78 | 4.00 | 84 | 1011.5 |
| 20260506180233 | 62 | 241 | 2.6 | 7.8 | 0.00 | 4.80 | 4.00 | 81 | 1011.4 |
| 20260506174735 | 63 | 236 | 1.7 | 5.2 | 0.00 | 4.80 | 4.00 | 79 | 1011.1 |
| 20260506173235 | 63 | 282 | 4.3 | 7.8 | 0.00 | 4.80 | 4.00 | 77 | 1011.1 |
| 20260506171735 | 63 | 254 | 5.2 | 11.3 | 0.00 | 4.80 | 4.00 | 77 | 1011.1 |
| 20260506170234 | 62 | 258 | 5.2 | 11.3 | 0.00 | 4.80 | 4.00 | 78 | 1011.3 |
| 20260506164734 | 62 | 257 | 5.2 | 11.3 | 0.00 | 4.80 | 4.00 | 78 | 1011.1 |
| 20260506163234 | 64 | 243 | 2.6 | 13.0 | 0.00 | 4.80 | 4.00 | 76 | 1011.1 |
| 20260506161734 | 64 | 245 | 6.1 | 13.0 | 0.00 | 4.80 | 4.00 | 75 | 1011.0 |
| 20260506160234 | 65 | 260 | 7.0 | 11.3 | 0.00 | 4.80 | 4.00 | 73 | 1011.1 |
| 20260506154733 | 65 | 276 | 7.0 | 13.0 | 0.01 | 4.80 | 4.00 | 71 | 1011.1 |
| 20260506153234 | 64 | 281 | 6.1 | 15.6 | 0.01 | 4.80 | 4.00 | 72 | 1011.2 |
| 20260506151732 | 66 | 257 | 12.2 | 20.9 | 0.01 | 4.80 | 4.00 | 71 | 1010.9 |
| 20260506150233 | 64 | 268 | 12.2 | 24.3 | 0.06 | 4.80 | 4.00 | 72 | 1011.2 |
| 20260506144733 | 62 | 287 | 12.2 | 20.9 | 0.05 | 4.78 | 3.99 | 87 | 1010.7 |
| 20260506143233 | 62 | 267 | 6.1 | 11.3 | 0.05 | 4.78 | 3.99 | 91 | 1010.7 |
| 20260506141731 | 62 | 263 | 7.0 | 13.0 | 0.05 | 4.78 | 3.99 | 88 | 1010.8 |
| 20260506140231 | 64 | 257 | 13.9 | 28.7 | 0.00 | 4.74 | 3.94 | 82 | 1010.9 |
| 20260506134731 | 66 | 268 | 13.0 | 31.3 | 0.00 | 4.74 | 3.94 | 78 | 1010.6 |
| 20260506133232 | 65 | 263 | 15.6 | 28.7 | 0.00 | 4.74 | 3.94 | 80 | 1010.8 |
| 20260506131731 | 64 | 210 | 6.1 | 11.3 | 0.00 | 4.75 | 3.94 | 83 | 1011.2 |
| 20260506130232 | 63 | 251 | 5.2 | 11.3 | 0.00 | 4.88 | 3.94 | 83 | 1011.3 |
| 20260506124730 | 63 | 252 | 7.0 | 18.2 | 0.00 | 4.90 | 3.94 | 86 | 1011.5 |
| 20260506123231 | 64 | 265 | 8.7 | 20.9 | 0.00 | 4.91 | 3.94 | 86 | 1011.2 |
| 20260506121730 | 65 | 259 | 11.3 | 20.9 | 0.00 | 4.91 | 3.94 | 84 | 1010.8 |
| 20260506120230 | 65 | 277 | 10.4 | 18.2 | 0.02 | 5.03 | 3.94 | 86 | 1010.6 |
| 20260506114730 | 64 | 263 | 5.2 | 11.3 | 0.02 | 5.14 | 3.94 | 91 | 1010.6 |
| 20260506113230 | 63 | 240 | 8.7 | 18.2 | 0.02 | 5.52 | 3.94 | 95 | 1010.5 |
| 20260506111731 | 62 | 272 | 6.1 | 15.6 | 0.02 | 5.66 | 3.94 | 94 | 1010.5 |
| 20260506110230 | 62 | 256 | 13.9 | 26.1 | 0.00 | 5.70 | 3.92 | 96 | 1010.6 |
| 20260506104730 | 61 | 246 | 15.6 | 33.9 | 0.00 | 5.85 | 3.92 | 99 | 1010.5 |
| 20260506103230 | 61 | 221 | 13.9 | 26.1 | 0.00 | 6.31 | 3.92 | 99 | 1010.6 |
| 20260506101730 | 61 | 237 | 7.0 | 15.6 | 0.00 | 6.35 | 3.92 | 99 | 1010.9 |
| 20260506100228 | 61 | 254 | 10.4 | 20.9 | 0.00 | 6.63 | 3.92 | 99 | 1010.8 |
| 20260506094730 | 61 | 239 | 7.0 | 20.9 | 0.00 | 6.91 | 3.92 | 99 | 1010.9 |
| 20260506093228 | 60 | 225 | 8.7 | 31.3 | 0.00 | 7.02 | 3.92 | 99 | 1011.1 |
| 20260506091729 | 60 | 244 | 7.0 | 18.2 | 0.00 | 7.05 | 3.92 | 99 | 1011.0 |
| 20260506090229 | 59 | 215 | 1.7 | 5.2 | 0.00 | 7.06 | 3.92 | 99 | 1010.8 |
| 20260506084729 | 58 | 166 | 0.0 | 2.6 | 0.00 | 7.15 | 3.92 | 99 | 1010.9 |
| 20260506083229 | 58 | 69 | 5.2 | 7.8 | 0.00 | 7.20 | 3.92 | 99 | 1010.7 |
| 20260506081729 | 59 | 93 | 1.7 | 7.8 | 0.00 | 7.22 | 3.92 | 99 | 1010.8 |
| 20260506080230 | 58 | 142 | 4.3 | 11.3 | 0.00 | 7.22 | 3.92 | 99 | 1010.9 |
| 20260506073228 | 58 | 199 | 6.1 | 13.0 | 0.00 | 7.29 | 3.92 | 99 | 1011.0 |
| 20260506071728 | 57 | 54 | 6.1 | 13.0 | 0.00 | 7.29 | 3.92 | 99 | 1010.7 |
| 20260506070228 | 57 | 106 | 1.7 | 5.2 | 0.01 | 7.29 | 3.92 | 99 | 1010.8 |
| 20260506061727 | 57 | 154 | 7.0 | 11.3 | 0.19 | 7.29 | 3.92 | 99 | 1010.8 |
| 20260506060228 | 57 | 156 | 7.0 | 11.3 | 0.26 | 7.29 | 3.91 | 99 | 1010.6 |
| 20260506050227 | 56 | 156 | 4.3 | 11.3 | 1.22 | 7.18 | 3.65 | 99 | 1010.8 |
| 20260506044726 | 56 | 156 | 7.0 | 15.6 | 0.77 | 6.77 | 3.20 | 99 | 1010.8 |
| 20260506043226 | 56 | 156 | 5.2 | 11.3 | 0.46 | 6.50 | 2.81 | 99 | 1010.8 |
| 20260506041727 | 56 | 156 | 14.8 | 26.1 | 0.30 | 6.44 | 2.53 | 99 | 1010.3 |
| 20260506040227 | 56 | 156 | 15.6 | 24.3 | 0.46 | 6.48 | 2.43 | 99 | 1010.7 |
| 20260506034726 | 56 | 156 | 15.6 | 26.1 | 0.85 | 6.51 | 2.43 | 99 | 1010.5 |
| 20260506033225 | 56 | 156 | 7.8 | 18.2 | 0.99 | 6.43 | 2.35 | 99 | 1011.2 |
| 20260506031727 | 56 | 156 | 12.2 | 18.2 | 0.97 | 6.31 | 2.23 | 99 | 1011.3 |
| 20260506030226 | 56 | 156 | 7.8 | 18.2 | 0.72 | 6.05 | 1.97 | 99 | 1011.4 |
| 20260506024725 | 56 | 156 | 6.1 | 13.0 | 0.33 | 5.72 | 1.58 | 99 | 1011.3 |
| 20260506023225 | 56 | 156 | 2.6 | 7.8 | 0.14 | 5.52 | 1.36 | 99 | 1011.4 |
| 20260506021726 | 56 | 156 | 7.8 | 15.6 | 0.05 | 5.43 | 1.26 | 99 | 1011.1 |
| 20260506020225 | 56 | 156 | 10.4 | 15.6 | 0.25 | 5.43 | 1.25 | 99 | 1011.3 |
| 20260506014726 | 56 | 156 | 5.2 | 13.0 | 0.37 | 5.47 | 1.25 | 99 | 1011.5 |
| 20260506013225 | 56 | 156 | 11.3 | 18.2 | 0.37 | 5.50 | 1.22 | 99 | 1011.2 |
| 20260506011725 | 56 | 156 | 6.1 | 13.0 | 0.41 | 5.55 | 1.22 | 99 | 1011.5 |